Location: Laguna de la Cañada del Gallo
(40.3974°N, 5.2096°W)
Time: 11:55:19
(UTC+00:00)

CZ-4C R/B - Pass Details

Date: 18 April 2024
Orbit: 530 x 1464 km, 63.4° (Epoch: 26 May)

Event Time Altitude Azimuth Distance (km) Brightness Sun altitude
Rises 20:29:50 0° 331° (NNW) 3,696 6.6 -15.9°
Reaches altitude 10° 20:32:45 10° 344° (NNW) 2,898 5.6 -16.4°
Maximum altitude 20:38:33 26° 40° (NE) 2,184 4.2 -17.4°
Enters shadow 20:43:21 16° 84° (E) 2,918 4.5 -18.1°
